Regional Weather Roundup
Issued by NWS

Home | Current Version | Previous Version | Graphics & Text | Print | Product List | Glossary On
Versions: 1 2 3 4 5 6 7 8 9 10 11 12 13 14 15 16 17 18 19 20 21 22 23 24 25 26 27 28 29 30 31 32 33 34 35 36 37 38 39 40 41 42 43 44 45 46 47 48 49 50
528
ASUS43 KLMK 091710
RWRKY
KENTUCKY REGIONAL WEATHER ROUNDUP
NATIONAL WEATHER SERVICE LOUISVILLE KY
1200 PM EST TUE FEB 09 2016

NOTE "FAIR" INDICATES FEW OR NO CLOUDS BELOW 12,000 FEET
WITH NO SIGNIFICANT WEATHER AND/OR OBSTRUCTIONS TO VISIBILITY.

KYZ001>023-026-027-061>063-070>075-091800-
WESTERN AND SOUTH CENTRAL KENTUCKY

CITY           SKY/WX    TMP DP  RH WIND       PRES   REMARKS
PADUCAH        LGT SNOW  24  18  77 N8        29.98S WCI  15
HENDERSON      CLOUDY    21  12  68 W16       29.94R WCI   7
OWENSBORO      LGT SNOW  22  16  78 NW12      29.93R WCI  11
HOPKINSVILLE   FLURRIES  23  11  60 NW14      29.94R WCI  11
BOWLING GREEN  CLOUDY    26  17  68 W9        29.91S WCI  17
GLASGOW        CLOUDY    24  17  73 NW9       29.88S WCI  14
$$

KYZ024-025-028>034-038-045-046-053-091800-
NORTH CENTRAL KENTUCKY

CITY           SKY/WX    TMP DP  RH WIND       PRES   REMARKS
LOUISVILLE/SDF LGT SNOW  26  17  68 W14       29.86S WCI  14
LOUISVILLE/LOU FLURRIES  24  16  71 W9        29.86S WCI  14
FORT KNOX      CLOUDY    23  16  74 W12       29.84S WCI  12
$$

KYZ035>037-039>044-047>052-055>060-089>105-091800-
NORTHEAST KENTUCKY

CITY           SKY/WX    TMP DP  RH WIND       PRES   REMARKS
LEXINGTON      LGT SNOW  22  16  78 W9        29.81R WCI  12
COVINGTON      LGT SNOW  23  17  78 W10       29.77S WCI  12
FRANKFORT      CLOUDY    23  15  71 W13G20    29.82R WCI  11
$$

KYZ054-064>069-076>088-106>120-091800-
SOUTHEAST KENTUCKY

CITY           SKY/WX    TMP DP  RH WIND       PRES   REMARKS
JACKSON        LGT SNOW  20  14  77 NW7       29.77S WCI  11
LONDON         LGT SNOW  22  14  71 W13       29.81S WCI  10
SOMERSET       CLOUDY    23  14  68 W12       29.86S WCI  12
MIDDLESBORO    CLOUDY    24  16  69 NW7       29.82S WCI  16
MONTICELLO     FLURRIES  23  16  74 W14G20    29.87R WCI  11
$$





USA.gov is the U.S. government's official web portal to all federal, state and local government web resources and services.